[[{"header":{"parameterUnit":"m.s-1","parameterCategory":1,"la1":30.2991,"la2":30.254,"lo1":-89.0895,"lo2":-89.0444,"dy":0.0017,"dx":0.0017,"nx":28,"ny":28,"refTime":"2025-06-11T09:00:00:Z","depth":0,"parameterNumber":2,"parameterNumberName":"U-component_of_WINDS"},"data":[0,0,0,0,0,0,0,0,0,0,0,0,0,0,0,0,0,0,0,0,0,0,0,0,0,0,0,0,0,0,0,0,0,0,0,0,0,0,0,0,0,0,0,0,0,0,0,0,0,0,0,0,0,0,0,0,0,0,1.9413,1.9415,0,1.9573,1.9575,1.9577,1.9559,1.9556,1.9554,1.9551,1.9717,1.9724,1.9731,0,0,0,0,0,0,0,0,0,0,0,0,0,1.9094,1.91,1.9413,1.9415,1.9417,1.9573,1.9575,1.9577,1.9559,1.9556,1.9553,1.955,1.9715,1.9723,1.9731,0,0,0,0,0,0,0,0,0,0,0,0,0,1.9241,1.9102,1.9413,1.9427,1.943,1.9573,1.9575,1.9578,1.956,1.9556,1.9552,1.9549,1.9712,1.9722,1.9732,1.9872,0,0,1.9763,1.9768,0,0,0,0,0,0,0,0,1.9233,1.9253,1.9423,1.9426,1.9429,1.9542,1.9523,1.9677,1.9561,1.9511,1.9551,1.9547,1.9662,1.9676,1.9715,1.988,1.9887,1.9764,1.9771,1.9775,1.9778,0,0,0,0,0,0,0,1.9223,1.9246,1.9476,1.9425,1.9429,1.9426,1.9443,1.9552,1.9606,1.9515,1.9514,1.9533,1.9663,1.9705,1.9719,1.9889,1.9764,1.9773,1.9779,1.9783,2.0179,2.0183,0,0,0,0,0,0,1.9209,1.9238,1.9471,1.9481,1.932,1.9435,1.9453,1.951,1.9605,1.9615,1.9536,1.9531,1.9689,1.9707,1.9724,1.9895,1.9775,1.9784,1.979,2.0174,2.018,2.0184,0,0,0,0,0,0,1.9202,1.923,1.9465,1.9359,1.9389,1.9444,1.9508,1.9515,1.9557,1.9621,1.963,1.9569,1.9687,1.971,1.9836,1.99,1.9789,1.9798,2.0169,2.0176,2.0182,2.0237,0,0,0,0,0,0,1.9193,1.9227,1.928,1.9361,1.9395,1.9573,1.9512,1.9521,1.9574,1.957,1.9654,1.9664,1.9686,1.9821,1.9846,1.9913,1.9806,2.0164,2.0172,2.018,2.023,2.0245,2.0257,0,0,0,0,0,1.9181,1.929,1.9283,1.9311,1.9462,1.9577,1.9596,1.9618,1.9579,1.9634,1.9675,1.9662,1.9889,1.9834,1.9862,1.9933,2.016,2.017,2.0179,2.0223,2.0242,2.0257,0,0,0,0,0,0,1.9216,1.93,1.9294,1.9431,1.9497,1.9573,1.9642,1.9637,1.9715,1.9708,1.9733,1.9752,1.9879,1.9918,1.9855,2.0074,2.0019,2.0035,2.0043,2.0061,2.0075,2.0063,1.9815,0,0,0,0,0,1.9239,1.9325,1.9394,1.9509,1.9542,1.9587,1.9637,1.9649,1.9718,1.9746,1.9796,1.9865,1.9952,2.0009,2.0092,2.0235,2.0254,2.0298,2.0312,2.0323,2.0337,2.0416,2.0437,2.0217,2.0217,2.0216,0,0,1.9289,1.9346,1.9398,1.9517,1.9569,1.9658,1.961,1.9706,1.9772,1.9761,1.9882,1.9922,2.0,2.0135,2.0197,2.0172,2.0402,2.0336,2.0344,2.0352,2.0429,2.0449,2.0468,2.0223,2.0222,2.0221,0,0,1.9424,1.9476,1.9577,1.963,1.971,1.9739,1.9764,1.9842,1.9867,1.999,1.9983,2.0063,2.0212,2.0268,2.0316,2.0475,2.0466,2.0501,2.0574,2.0652,2.0669,2.0684,2.0742,2.0762,2.0515,2.0515,2.0515,0,1.9476,1.9609,1.963,1.9727,1.978,1.9774,1.9877,1.9928,2.0031,2.0068,2.0038,2.0226,2.0278,2.0427,2.0465,2.0504,2.0534,2.0492,2.0665,2.068,2.0695,2.075,2.0771,2.0519,2.0518,2.0518,2.0518,0,1.9669,1.9761,1.9834,1.9933,1.9995,2.0094,2.0131,2.0191,2.0198,2.023,2.0356,2.0418,2.0515,2.0551,2.0558,2.0701,2.0683,2.0659,2.0605,2.072,2.0772,2.0793,2.0524,2.0523,2.0522,2.0521,0,0,1.983,1.9941,1.9967,2.0013,2.0101,2.0173,2.0273,2.0367,2.0418,2.049,2.0575,2.0702,2.068,2.0735,2.0748,2.0816,2.0939,2.0784,2.0786,2.0811,2.1101,2.1119,2.1143,2.0933,2.0937,2.0941,2.1095,0,1.9975,2.0151,2.0174,2.0331,2.0417,2.0413,2.05,2.0564,2.0597,2.0676,2.0713,2.0803,2.0767,2.08,2.0867,2.091,2.0997,2.0899,2.1013,2.1017,2.0994,2.117,2.1189,2.1332,2.1115,2.1119,2.1121,0,2.0167,2.0244,2.041,2.0487,2.0524,2.0602,2.069,2.0765,2.0838,2.0858,2.092,2.0925,2.103,2.0971,2.1116,2.1048,2.1097,2.1125,2.1131,2.1143,2.1076,2.1187,2.1378,2.14,2.1153,2.1151,2.1149,0,2.0269,2.0414,2.0532,2.0571,2.0664,2.0719,2.076,2.0829,2.0885,2.0963,2.0999,2.1088,2.1137,2.1206,2.1236,2.119,2.1379,2.1323,2.1399,2.1399,2.1439,2.1436,2.1641,2.147,2.147,2.1469,2.1469,0,2.0429,2.053,2.0579,2.0652,2.0766,2.0791,2.0904,2.0943,2.1005,2.1086,2.1087,2.1163,2.1198,2.128,2.1304,2.142,2.1442,2.1462,2.1467,2.1462,2.1459,2.1494,2.1485,2.1475,2.1474,2.1473,2.1472,0,2.0562,2.0598,2.0727,2.0804,2.0826,2.0907,2.0974,2.1045,2.1077,2.118,2.1205,2.1257,2.1354,2.139,2.1508,2.1524,2.1659,2.1656,2.1634,2.1636,2.171,2.1703,2.1944,2.1977,2.1784,2.1786,2.1787,0,2.0661,2.0739,2.0825,2.0879,2.0922,2.1009,2.1066,2.1094,2.1153,2.1243,2.1303,2.1399,2.1477,2.1632,2.168,2.1771,2.177,2.1848,2.1784,2.1776,2.1772,2.1767,2.1775,2.186,2.1862,2.1864,2.1865,0,2.0834,2.0848,2.093,2.1018,2.1086,2.1157,2.1226,2.127,2.1309,2.1376,2.1474,2.1534,2.1655,2.175,2.1843,2.1886,2.1883,2.1885,2.1908,2.1903,2.1888,2.1898,2.1667,2.188,2.1878,2.1877,2.1876,2.1876,2.0954,2.1023,2.1095,2.1185,2.124,2.1305,2.1376,2.1418,2.15,2.16,2.1612,2.1717,2.1789,2.1914,2.1961,2.2045,2.2024,2.2056,2.2065,2.2072,2.2078,2.1874,2.2062,2.2061,2.2061,2.2061,2.2061,0,2.1127,2.1173,2.1256,2.1353,2.1425,2.1415,2.1491,2.1552,2.1645,2.1712,2.1789,2.1902,2.1995,2.2052,2.2145,2.2201,2.2202,2.2225,2.2221,2.2231,2.2091,2.2062,2.2223,2.2223,2.2223,2.2223,2.2222,2.2222,2.1225,2.1343,2.1366,2.1511,2.1557,2.166,2.1704,2.1764,2.1818,2.1945,2.2022,2.2058,2.2121,2.2219,2.2304,2.2319,2.2353,2.2378,2.239,2.2258,2.2241,2.2225,2.2198,2.2385,2.2385,2.2524,2.2525,2.2526]},{"header":{"parameterUnit":"m.s-1","parameterCategory":1,"la1":30.2991,"la2":30.254,"lo1":-89.0895,"lo2":-89.0444,"dy":0.0017,"dx":0.0017,"nx":28,"ny":28,"refTime":"2025-06-11T09:00:00:Z","depth":0,"parameterNumber":3,"parameterNumberName":"V-component_of_WINDS"},"data":[0,0,0,0,0,0,0,0,0,0,0,0,0,0,0,0,0,0,0,0,0,0,0,0,0,0,0,0,0,0,0,0,0,0,0,0,0,0,0,0,0,0,0,0,0,0,0,0,0,0,0,0,0,0,0,0,0,0,-0.5227,-0.5225,0,-0.5001,-0.4998,-0.4995,-0.4989,-0.4992,-0.4994,-0.4997,-0.4749,-0.474,-0.4731,0,0,0,0,0,0,0,0,0,0,0,0,0,-0.564,-0.5632,-0.5228,-0.5225,-0.5222,-0.5001,-0.4998,-0.4995,-0.4988,-0.4992,-0.4995,-0.4998,-0.4752,-0.4741,-0.473,0,0,0,0,0,0,0,0,0,0,0,0,0,-0.5441,-0.563,-0.5228,-0.5193,-0.5187,-0.5002,-0.4998,-0.4994,-0.4988,-0.4992,-0.4996,-0.5,-0.4756,-0.4743,-0.4729,-0.4559,0,0,-0.4687,-0.4681,0,0,0,0,0,0,0,0,-0.5453,-0.5426,-0.5201,-0.5195,-0.5188,-0.5028,-0.5052,-0.4847,-0.4987,-0.5063,-0.4997,-0.5002,-0.4837,-0.4817,-0.4765,-0.4547,-0.4537,-0.4685,-0.4677,-0.4671,-0.4667,0,0,0,0,0,0,0,-0.5466,-0.5436,-0.5137,-0.5197,-0.519,-0.5183,-0.5159,-0.5013,-0.4929,-0.5057,-0.5056,-0.503,-0.4835,-0.4778,-0.4759,-0.4533,-0.4686,-0.4673,-0.4665,-0.466,-0.416,-0.4156,0,0,0,0,0,0,-0.5489,-0.5447,-0.5144,-0.5131,-0.5334,-0.5172,-0.5146,-0.5075,-0.493,-0.4913,-0.5026,-0.503,-0.48,-0.4775,-0.475,-0.4539,-0.4671,-0.4658,-0.465,-0.4165,-0.4159,-0.4154,0,0,0,0,0,0,-0.5498,-0.5463,-0.5154,-0.5289,-0.5249,-0.5161,-0.5081,-0.5068,-0.5012,-0.4908,-0.4891,-0.4985,-0.4802,-0.477,-0.4607,-0.453,-0.4652,-0.4639,-0.4171,-0.4163,-0.4156,-0.4116,0,0,0,0,0,0,-0.551,-0.5466,-0.5404,-0.5288,-0.5242,-0.5018,-0.5076,-0.506,-0.499,-0.4992,-0.4865,-0.4847,-0.4803,-0.4627,-0.4593,-0.4513,-0.4629,-0.4177,-0.4168,-0.4159,-0.4124,-0.4109,-0.4095,0,0,0,0,0,-0.5525,-0.5399,-0.5401,-0.5364,-0.5163,-0.5014,-0.4987,-0.4943,-0.4984,-0.4918,-0.4851,-0.4851,-0.4545,-0.4611,-0.4572,-0.4487,-0.4182,-0.417,-0.416,-0.4131,-0.4112,-0.4096,0,0,0,0,0,0,-0.5503,-0.5383,-0.5384,-0.5218,-0.5127,-0.5014,-0.4929,-0.4925,-0.4817,-0.4824,-0.4769,-0.474,-0.4577,-0.4516,-0.4591,-0.4313,-0.4367,-0.4348,-0.4359,-0.434,-0.4326,-0.4342,-0.4617,0,0,0,0,0,-0.548,-0.5374,-0.5273,-0.5135,-0.5091,-0.5018,-0.4951,-0.4926,-0.4827,-0.4787,-0.4708,-0.4608,-0.4489,-0.4412,-0.4297,-0.4117,-0.4086,-0.4038,-0.4024,-0.4013,-0.3995,-0.3891,-0.3868,-0.4117,-0.4117,-0.4117,0,0,-0.5429,-0.535,-0.5286,-0.5129,-0.5056,-0.4942,-0.4985,-0.4863,-0.4776,-0.4767,-0.4609,-0.4548,-0.4432,-0.4259,-0.4179,-0.4203,-0.392,-0.3999,-0.3991,-0.3978,-0.3877,-0.3854,-0.3833,-0.411,-0.4111,-0.4112,0,0,-0.5277,-0.521,-0.5087,-0.5013,-0.4903,-0.4856,-0.4827,-0.4714,-0.4674,-0.4516,-0.4506,-0.4399,-0.4197,-0.4114,-0.4046,-0.3863,-0.3857,-0.3827,-0.3749,-0.3649,-0.3629,-0.3611,-0.3542,-0.3518,-0.381,-0.381,-0.381,0,-0.5226,-0.5059,-0.5022,-0.4901,-0.483,-0.4822,-0.4693,-0.4622,-0.4478,-0.4427,-0.4458,-0.4203,-0.4124,-0.393,-0.3886,-0.3832,-0.3792,-0.3839,-0.3636,-0.3618,-0.3601,-0.3534,-0.3508,-0.3807,-0.3807,-0.3808,-0.3808,0,-0.5,-0.4884,-0.4797,-0.4663,-0.4583,-0.4458,-0.4397,-0.432,-0.4301,-0.4249,-0.4085,-0.3992,-0.3857,-0.381,-0.3789,-0.3611,-0.3629,-0.3649,-0.3701,-0.3574,-0.351,-0.3485,-0.3802,-0.3803,-0.3804,-0.3805,0,0,-0.4825,-0.4675,-0.4643,-0.4581,-0.4459,-0.4366,-0.4239,-0.4112,-0.4045,-0.3946,-0.3834,-0.3663,-0.3681,-0.3603,-0.3573,-0.3485,-0.3341,-0.3514,-0.3511,-0.3482,-0.3135,-0.3118,-0.309,-0.3339,-0.3334,-0.333,-0.3143,0,-0.4657,-0.4437,-0.44,-0.4205,-0.4094,-0.4085,-0.3974,-0.3884,-0.3832,-0.3727,-0.3668,-0.3546,-0.3581,-0.3533,-0.3447,-0.3378,-0.327,-0.3391,-0.3229,-0.3224,-0.3255,-0.3057,-0.3039,-0.2867,-0.3118,-0.3114,-0.3111,0,-0.4431,-0.4331,-0.4126,-0.4019,-0.3971,-0.3873,-0.3752,-0.3653,-0.355,-0.3518,-0.3432,-0.3412,-0.3274,-0.3337,-0.3144,-0.3227,-0.3158,-0.3114,-0.3106,-0.3086,-0.3157,-0.3026,-0.2811,-0.2784,-0.3072,-0.3075,-0.3078,0,-0.4319,-0.4133,-0.3986,-0.3934,-0.3806,-0.3736,-0.3678,-0.358,-0.3505,-0.3398,-0.3348,-0.3225,-0.3156,-0.3059,-0.3004,-0.3055,-0.2813,-0.2872,-0.2777,-0.2778,-0.2723,-0.2726,-0.2489,-0.2686,-0.2686,-0.2687,-0.2687,0,-0.4133,-0.4007,-0.3934,-0.3843,-0.37,-0.3657,-0.3515,-0.3457,-0.337,-0.3263,-0.3248,-0.3147,-0.3083,-0.2971,-0.2927,-0.2771,-0.2741,-0.2707,-0.2696,-0.2706,-0.271,-0.2657,-0.2666,-0.268,-0.2681,-0.2683,-0.2684,0,-0.3982,-0.3929,-0.3767,-0.3661,-0.3631,-0.353,-0.3435,-0.3344,-0.3294,-0.3159,-0.3124,-0.3042,-0.291,-0.2848,-0.2683,-0.2653,-0.2475,-0.2474,-0.2511,-0.2506,-0.2413,-0.2421,-0.213,-0.2088,-0.2317,-0.2315,-0.2314,0,-0.3865,-0.3768,-0.3652,-0.3583,-0.3525,-0.3412,-0.3337,-0.329,-0.3211,-0.3086,-0.3008,-0.2877,-0.277,-0.2558,-0.248,-0.2353,-0.2346,-0.2253,-0.2326,-0.2339,-0.2339,-0.2344,-0.2332,-0.2238,-0.2236,-0.2234,-0.2233,0,-0.3661,-0.364,-0.3535,-0.342,-0.3332,-0.3238,-0.3145,-0.3088,-0.3025,-0.2936,-0.2805,-0.2721,-0.2555,-0.2423,-0.2291,-0.2225,-0.2215,-0.2211,-0.2182,-0.2189,-0.2213,-0.2194,-0.247,-0.2217,-0.2218,-0.2219,-0.222,-0.2221,-0.3519,-0.3432,-0.3338,-0.322,-0.3147,-0.3061,-0.2969,-0.2909,-0.28,-0.2664,-0.2642,-0.25,-0.2396,-0.2219,-0.2149,-0.2033,-0.2054,-0.2012,-0.2001,-0.199,-0.1983,-0.2236,-0.2009,-0.201,-0.201,-0.201,-0.2011,0,-0.3311,-0.325,-0.3144,-0.3017,-0.2923,-0.293,-0.2828,-0.2747,-0.2624,-0.2531,-0.2427,-0.2273,-0.2145,-0.2058,-0.1927,-0.1851,-0.1843,-0.1817,-0.182,-0.1804,-0.1974,-0.2011,-0.1826,-0.1826,-0.1826,-0.1826,-0.1826,-0.1826,-0.3191,-0.3043,-0.3011,-0.2825,-0.2763,-0.2628,-0.2568,-0.2487,-0.2412,-0.2243,-0.2139,-0.2086,-0.1993,-0.1855,-0.1736,-0.1713,-0.1663,-0.1637,-0.1614,-0.1773,-0.1792,-0.1811,-0.1845,-0.1627,-0.1627,-0.1452,-0.1451,-0.1449]}]]